Time,TemperatureF,DewpointF,PressureIn,WindDirection,WindDirectionDegrees,WindSpeedMPH,WindSpeedGustMPH,Humidity,HourlyPrecipIn,Conditions,Clouds,dailyrainin,SoftwareType,DateUTC
2013-08-13 01:17:00,68.5,67.0,29.80,SSE,167,0.0,0.0,95,0.00,,---,0.00,VWS V14.01,2013-08-13 05:17:00,
2013-08-13 01:22:00,68.5,67.0,29.79,SSE,167,0.0,0.0,95,0.00,,---,0.00,VWS V14.01,2013-08-13 05:22:00,
2013-08-13 01:27:00,68.5,67.0,29.79,SSE,167,0.0,0.0,95,0.00,,---,0.00,VWS V14.01,2013-08-13 05:27:00,
2013-08-13 01:32:00,68.5,67.0,29.79,SSE,167,0.0,0.0,95,0.00,,---,0.00,VWS V14.01,2013-08-13 05:32:00,
2013-08-13 01:37:00,68.6,67.1,29.78,SSE,167,0.0,0.0,95,0.00,,---,0.00,VWS V14.01,2013-08-13 05:37:00,
2013-08-13 01:42:00,68.6,67.1,29.78,SSE,167,0.0,0.0,95,0.00,,---,0.00,VWS V14.01,2013-08-13 05:42:00,
2013-08-13 01:47:00,68.6,67.1,29.79,SSE,167,0.0,0.0,95,0.00,,---,0.00,VWS V14.01,2013-08-13 05:47:00,
2013-08-13 01:52:00,68.6,67.1,29.79,SSE,167,0.0,0.0,95,0.00,,---,0.00,VWS V14.01,2013-08-13 05:52:00,
2013-08-13 01:57:00,68.6,67.1,29.79,SSE,167,0.0,0.0,95,0.00,,---,0.00,VWS V14.01,2013-08-13 05:57:00,
2013-08-13 02:02:00,68.6,67.1,29.79,SSE,167,0.0,0.0,95,0.00,,---,0.00,VWS V14.01,2013-08-13 06:02:00,
2013-08-13 02:07:00,68.7,67.2,29.79,SSE,167,0.0,0.0,95,0.00,,---,0.00,VWS V14.01,2013-08-13 06:07:00,
2013-08-13 02:12:00,68.7,67.2,29.79,SSE,167,0.0,0.0,95,0.00,,---,0.00,VWS V14.01,2013-08-13 06:12:00,
2013-08-13 02:17:00,68.7,67.2,29.79,SSE,167,0.0,0.0,95,0.00,,---,0.00,VWS V14.01,2013-08-13 06:17:00,
2013-08-13 02:22:00,68.7,67.2,29.79,SSE,167,0.0,0.0,95,0.00,,---,0.00,VWS V14.01,2013-08-13 06:22:00,
2013-08-13 02:27:00,68.7,67.2,29.79,SSE,167,0.0,0.0,95,0.00,,---,0.00,VWS V14.01,2013-08-13 06:27:00,
2013-08-13 02:32:00,68.8,67.3,29.78,SSE,167,0.0,0.0,95,0.00,,---,0.00,VWS V14.01,2013-08-13 06:32:00,
2013-08-13 02:37:00,68.8,67.6,29.78,SSE,163,0.0,0.0,96,0.00,,---,0.00,VWS V14.01,2013-08-13 06:37:00,
2013-08-13 02:42:00,68.9,67.7,29.78,SSE,162,0.0,0.0,96,0.00,,---,0.00,VWS V14.01,2013-08-13 06:42:00,
2013-08-13 02:47:00,68.9,67.7,29.78,SSE,163,0.0,0.0,96,0.00,,---,0.00,VWS V14.01,2013-08-13 06:47:00,
2013-08-13 02:52:00,69.0,67.8,29.79,SSE,163,0.0,0.0,96,0.00,,---,0.00,VWS V14.01,2013-08-13 06:52:00,
2013-08-13 02:57:00,68.9,67.7,29.79,SSE,163,0.0,0.0,96,0.00,,---,0.00,VWS V14.01,2013-08-13 06:57:00,
2013-08-13 03:02:00,68.9,67.7,29.79,SSE,163,0.0,0.0,96,0.00,,---,0.00,VWS V14.01,2013-08-13 07:02:00,
2013-08-13 03:07:00,68.9,67.7,29.78,SSE,163,0.0,0.0,96,0.00,,---,0.00,VWS V14.01,2013-08-13 07:07:00,
2013-08-13 03:12:00,68.9,67.7,29.78,SSE,163,0.0,0.0,96,0.00,,---,0.00,VWS V14.01,2013-08-13 07:12:00,
2013-08-13 03:17:00,68.9,67.7,29.79,SSE,163,0.0,0.0,96,0.00,,---,0.00,VWS V14.01,2013-08-13 07:17:00,
2013-08-13 03:22:00,68.9,67.7,29.79,SSE,163,0.0,0.0,96,0.00,,---,0.00,VWS V14.01,2013-08-13 07:22:00,
2013-08-13 03:27:00,68.8,67.6,29.79,SSE,163,0.0,0.0,96,0.00,,---,0.00,VWS V14.01,2013-08-13 07:27:00,
2013-08-13 03:32:00,68.8,67.6,29.79,SSE,163,0.0,0.0,96,0.00,,---,0.00,VWS V14.01,2013-08-13 07:32:00,
2013-08-13 03:37:00,68.8,67.6,29.79,SSE,163,0.0,0.0,96,0.00,,---,0.00,VWS V14.01,2013-08-13 07:37:00,
2013-08-13 03:42:00,68.8,67.6,29.79,SSE,163,0.0,0.0,96,0.00,,---,0.00,VWS V14.01,2013-08-13 07:42:00,
2013-08-13 03:47:00,68.8,67.6,29.79,SSE,163,0.0,0.0,96,0.00,,---,0.00,VWS V14.01,2013-08-13 07:47:00,
2013-08-13 03:52:00,68.8,67.6,29.79,SSE,163,0.0,0.0,96,0.00,,---,0.00,VWS V14.01,2013-08-13 07:52:00,
2013-08-13 03:57:00,68.8,67.6,29.79,SSE,163,0.0,0.0,96,0.00,,---,0.00,VWS V14.01,2013-08-13 07:57:00,
2013-08-13 04:02:00,68.7,67.5,29.79,SSE,163,0.0,0.0,96,0.00,,---,0.00,VWS V14.01,2013-08-13 08:02:00,
2013-08-13 04:07:00,68.7,67.5,29.79,SSE,163,0.0,0.0,96,0.00,,---,0.00,VWS V14.01,2013-08-13 08:07:00,
2013-08-13 04:12:00,68.7,67.5,29.78,SSE,163,0.0,0.0,96,0.00,,---,0.00,VWS V14.01,2013-08-13 08:12:00,
2013-08-13 04:17:00,68.7,67.5,29.78,SSE,163,0.0,0.0,96,0.00,,---,0.00,VWS V14.01,2013-08-13 08:17:00,
2013-08-13 04:22:00,68.7,67.5,29.78,SSE,163,0.0,0.0,96,0.00,,---,0.00,VWS V14.01,2013-08-13 08:22:00,
2013-08-13 04:27:00,68.7,67.5,29.78,SSE,163,0.0,0.0,96,0.00,,---,0.00,VWS V14.01,2013-08-13 08:27:00,
2013-08-13 04:32:00,68.7,67.5,29.78,SSE,163,0.0,0.0,96,0.00,,---,0.00,VWS V14.01,2013-08-13 08:32:00,
2013-08-13 04:37:00,68.7,67.5,29.77,SSE,163,0.0,0.0,96,0.00,,---,0.00,VWS V14.01,2013-08-13 08:37:00,
2013-08-13 04:42:00,68.7,67.5,29.77,SSE,163,0.0,0.0,96,0.00,,---,0.00,VWS V14.01,2013-08-13 08:42:00,
2013-08-13 04:47:00,68.7,67.5,29.77,SSE,163,0.0,0.0,96,0.00,,---,0.00,VWS V14.01,2013-08-13 08:47:00,
2013-08-13 04:52:00,68.7,67.5,29.77,SSE,163,0.0,0.0,96,0.00,,---,0.00,VWS V14.01,2013-08-13 08:52:00,
2013-08-13 04:57:00,68.6,67.4,29.77,SSE,163,0.0,0.0,96,0.00,,---,0.00,VWS V14.01,2013-08-13 08:57:00,
2013-08-13 05:02:00,68.6,67.4,29.77,SSE,163,0.0,0.0,96,0.00,,---,0.00,VWS V14.01,2013-08-13 09:02:00,
2013-08-13 05:07:00,68.6,67.4,29.77,South,180,0.0,0.0,96,0.00,,---,0.00,VWS V14.01,2013-08-13 09:07:00,
2013-08-13 05:12:00,68.5,67.3,29.77,South,175,0.0,0.0,96,0.00,,---,0.00,VWS V14.01,2013-08-13 09:12:00,
2013-08-13 05:17:00,68.5,67.3,29.77,South,175,0.0,0.0,96,0.00,,---,0.00,VWS V14.01,2013-08-13 09:17:00,
2013-08-13 05:22:00,68.4,67.2,29.77,South,175,0.0,0.0,96,0.00,,---,0.00,VWS V14.01,2013-08-13 09:22:00,
2013-08-13 05:27:00,68.3,67.1,29.77,SSE,159,0.0,0.0,96,0.00,,---,0.00,VWS V14.01,2013-08-13 09:27:00,
2013-08-13 05:32:00,68.3,67.1,29.77,East,98,0.0,0.0,96,0.00,,---,0.00,VWS V14.01,2013-08-13 09:32:00,
2013-08-13 05:37:00,68.2,67.0,29.77,East,98,0.0,0.0,96,0.00,,---,0.00,VWS V14.01,2013-08-13 09:37:00,
2013-08-13 05:42:00,68.2,67.0,29.76,NW,319,0.0,0.0,96,0.00,,---,0.00,VWS V14.01,2013-08-13 09:42:00,
2013-08-13 05:47:00,68.1,66.9,29.76,SSE,164,0.0,0.0,96,0.00,,---,0.00,VWS V14.01,2013-08-13 09:47:00,
2013-08-13 05:52:00,68.0,66.8,29.77,SSW,213,0.0,0.0,96,0.00,,---,0.00,VWS V14.01,2013-08-13 09:52:00,
2013-08-13 05:57:00,67.9,67.0,29.77,SSE,163,0.0,0.0,97,0.00,,---,0.00,VWS V14.01,2013-08-13 09:57:00,
2013-08-13 06:02:00,67.8,66.9,29.76,ESE,123,0.0,0.0,97,0.00,,---,0.00,VWS V14.01,2013-08-13 10:02:00,
2013-08-13 06:07:00,67.7,66.8,29.77,SW,223,0.0,0.0,97,0.00,,---,0.00,VWS V14.01,2013-08-13 10:07:00,
2013-08-13 06:12:00,67.6,66.4,29.77,SE,142,0.0,0.0,96,0.00,,---,0.00,VWS V14.01,2013-08-13 10:12:00,
2013-08-13 06:17:00,67.5,66.3,29.77,SE,142,0.0,0.0,96,0.00,,---,0.00,VWS V14.01,2013-08-13 10:17:00,
2013-08-13 06:22:00,67.4,66.5,29.76,SE,144,0.0,0.0,97,0.00,,---,0.00,VWS V14.01,2013-08-13 10:22:00,
2013-08-13 06:27:00,67.4,66.5,29.76,SE,144,0.0,0.0,97,0.00,,---,0.00,VWS V14.01,2013-08-13 10:27:00,
2013-08-13 06:32:00,67.3,66.4,29.76,SE,144,0.0,0.0,97,0.00,,---,0.00,VWS V14.01,2013-08-13 10:32:00,
2013-08-13 06:37:00,67.2,66.3,29.77,SE,144,0.0,0.0,97,0.00,,---,0.00,VWS V14.01,2013-08-13 10:37:00,
2013-08-13 06:42:00,67.2,66.3,29.77,SE,144,0.0,0.0,97,0.04,,---,0.07,VWS V14.01,2013-08-13 10:42:00,
2013-08-13 06:47:00,67.2,66.3,29.77,SE,135,0.0,0.0,97,0.13,,---,0.13,VWS V14.01,2013-08-13 10:47:00,
2013-08-13 06:52:00,67.2,66.3,29.77,SE,135,0.0,0.0,97,0.13,,---,0.13,VWS V14.01,2013-08-13 10:52:00,
2013-08-13 06:57:00,67.2,66.3,29.77,SSE,161,0.0,0.0,97,0.13,,---,0.13,VWS V14.01,2013-08-13 10:57:00,
2013-08-13 07:02:00,67.2,66.3,29.77,East,85,0.0,0.0,97,0.13,,---,0.13,VWS V14.01,2013-08-13 11:02:00,
2013-08-13 07:07:00,67.2,66.3,29.77,NNE,22,0.0,0.0,97,0.13,,---,0.13,VWS V14.01,2013-08-13 11:07:00,
2013-08-13 07:12:00,67.2,66.3,29.78,SSE,168,0.0,0.0,97,0.13,,---,0.13,VWS V14.01,2013-08-13 11:12:00,
2013-08-13 07:17:00,67.2,66.3,29.78,SSE,156,0.0,0.0,97,0.30,,---,0.30,VWS V14.01,2013-08-13 11:17:00,
2013-08-13 07:22:00,67.2,66.3,29.78,SSE,151,0.0,0.0,97,0.30,,---,0.30,VWS V14.01,2013-08-13 11:22:00,
2013-08-13 07:27:00,67.2,66.3,29.78,SSE,151,0.0,0.0,97,0.78,,---,0.78,VWS V14.01,2013-08-13 11:27:00,
2013-08-13 07:32:00,67.3,66.4,29.78,SSE,150,0.0,0.0,97,1.67,,---,1.67,VWS V14.01,2013-08-13 11:32:00,
2013-08-13 07:37:00,67.2,66.3,29.78,SE,144,0.0,0.0,97,2.76,,---,2.76,VWS V14.01,2013-08-13 11:37:00,
2013-08-13 07:42:00,67.3,66.4,29.78,South,178,0.0,0.0,97,3.25,,---,3.25,VWS V14.01,2013-08-13 11:42:00,
2013-08-13 07:48:00,67.3,66.4,29.78,ESE,106,0.0,0.0,97,3.62,,---,3.75,VWS V14.01,2013-08-13 11:48:00,
2013-08-13 07:53:00,67.3,66.4,29.78,South,171,0.0,0.0,97,4.64,,---,4.77,VWS V14.01,2013-08-13 11:53:00,
2013-08-13 07:58:00,67.4,66.5,29.78,South,171,0.0,0.0,97,5.42,,---,5.55,VWS V14.01,2013-08-13 11:58:00,
2013-08-13 08:03:00,67.4,66.5,29.78,WSW,242,0.0,0.0,97,6.20,,---,6.33,VWS V14.01,2013-08-13 12:03:00,
2013-08-13 08:07:00,67.4,66.5,29.78,South,175,0.0,0.0,97,7.39,,---,7.52,VWS V14.01,2013-08-13 12:07:00,
2013-08-13 08:13:00,67.5,66.6,29.78,SE,146,0.0,0.0,97,8.59,,---,8.72,VWS V14.01,2013-08-13 12:13:00,
2013-08-13 08:18:00,67.5,66.6,29.78,SSE,165,0.0,0.0,97,9.60,,---,9.74,VWS V14.01,2013-08-13 12:18:00,
2013-08-13 08:23:00,67.5,66.6,29.79,SSE,165,0.0,0.0,97,10.64,,---,10.94,VWS V14.01,2013-08-13 12:23:00,
2013-08-13 08:28:00,67.5,66.9,29.79,SSE,165,0.0,0.0,98,11.65,,---,11.98,VWS V14.01,2013-08-13 12:28:00,
2013-08-13 08:33:00,67.6,67.0,29.79,SW,223,0.0,0.0,98,11.95,,---,12.95,VWS V14.01,2013-08-13 12:33:00,
2013-08-13 08:38:00,67.6,67.0,29.79,ESE,118,0.0,0.0,98,11.10,,---,12.95,VWS V14.01,2013-08-13 12:38:00,
2013-08-13 08:43:00,67.7,67.1,29.79,ESE,118,0.0,0.0,98,10.52,,---,13.31,VWS V14.01,2013-08-13 12:43:00,
2013-08-13 08:48:00,67.8,67.2,29.79,ESE,118,0.0,0.0,98,11.26,,---,14.51,VWS V14.01,2013-08-13 12:48:00,
2013-08-13 08:53:00,67.9,67.3,29.78,ESE,118,0.0,0.0,98,11.74,,---,15.71,VWS V14.01,2013-08-13 12:53:00,
2013-08-13 08:58:00,68.1,67.5,29.78,SSE,154,0.0,0.0,98,11.78,,---,16.79,VWS V14.01,2013-08-13 12:58:00,
2013-08-13 09:03:00,68.3,67.7,29.78,ESE,123,0.0,0.0,98,12.44,,---,17.99,VWS V14.01,2013-08-13 13:03:00,
2013-08-13 09:08:00,68.5,67.9,29.78,SE,130,0.0,0.0,98,12.49,,---,19.06,VWS V14.01,2013-08-13 13:08:00,
2013-08-13 09:13:00,68.6,68.0,29.78,SE,146,0.0,0.0,98,12.46,,---,20.22,VWS V14.01,2013-08-13 13:13:00,
2013-08-13 09:18:00,68.8,68.2,29.78,SE,138,0.0,0.0,98,12.46,,---,21.42,VWS V14.01,2013-08-13 13:18:00,
2013-08-13 09:23:00,68.9,68.3,29.78,SSE,156,0.0,0.0,98,12.55,,---,22.53,VWS V14.01,2013-08-13 13:23:00,
2013-08-13 09:28:00,69.1,68.5,29.78,NE,36,0.0,0.0,98,12.55,,---,23.73,VWS V14.01,2013-08-13 13:28:00,
2013-08-13 09:33:00,69.2,68.6,29.78,ESE,111,0.0,0.0,98,12.64,,---,24.81,VWS V14.01,2013-08-13 13:33:00,
2013-08-13 09:38:00,69.4,68.8,29.78,SSE,153,0.0,0.0,98,13.06,,---,26.01,VWS V14.01,2013-08-13 13:38:00,
2013-08-13 09:43:00,69.5,68.9,29.78,SSE,165,0.0,0.0,98,14.26,,---,27.21,VWS V14.01,2013-08-13 13:43:00,
2013-08-13 09:48:00,69.6,69.0,29.79,WSW,250,0.0,0.0,98,14.86,,---,28.41,VWS V14.01,2013-08-13 13:48:00,
2013-08-13 09:53:00,69.7,69.1,29.79,SE,142,0.0,0.0,98,14.86,,---,29.61,VWS V14.01,2013-08-13 13:53:00,
2013-08-13 09:58:00,69.8,69.2,29.79,South,170,0.0,0.0,98,14.74,,---,30.69,VWS V14.01,2013-08-13 13:58:00,
2013-08-13 10:03:00,70.0,69.4,29.78,SSE,150,0.0,0.0,98,14.86,,---,31.89,VWS V14.01,2013-08-13 14:03:00,
2013-08-13 10:08:00,70.1,69.5,29.79,SE,136,0.0,0.0,98,14.87,,---,33.09,VWS V14.01,2013-08-13 14:08:00,
2013-08-13 10:13:00,70.3,69.7,29.78,WNW,290,0.0,0.0,98,15.00,,---,34.29,VWS V14.01,2013-08-13 14:13:00,
2013-08-13 10:18:00,70.8,70.2,29.78,South,177,0.0,0.0,98,14.91,,---,35.37,VWS V14.01,2013-08-13 14:18:00,
2013-08-13 10:23:00,71.2,70.6,29.78,ESE,117,0.0,0.0,98,14.95,,---,36.61,VWS V14.01,2013-08-13 14:23:00,
2013-08-13 10:28:00,71.6,71.0,29.78,South,173,0.0,0.0,98,14.91,,---,37.68,VWS V14.01,2013-08-13 14:28:00,
2013-08-13 10:33:00,72.0,71.4,29.78,NW,311,0.0,0.0,98,14.86,,---,38.71,VWS V14.01,2013-08-13 14:33:00,
2013-08-13 10:38:00,72.3,71.7,29.78,SE,136,0.0,0.0,98,14.09,,---,39.14,VWS V14.01,2013-08-13 14:38:00,
2013-08-13 10:43:00,72.8,72.2,29.78,East,83,0.0,0.0,98,12.89,,---,39.14,VWS V14.01,2013-08-13 14:43:00,
2013-08-13 10:48:00,73.2,72.6,29.78,SE,140,0.0,0.0,98,11.69,,---,39.14,VWS V14.01,2013-08-13 14:48:00,
2013-08-13 10:53:00,73.3,72.1,29.78,ESE,113,0.0,0.0,96,10.61,,---,39.14,VWS V14.01,2013-08-13 14:53:00,
2013-08-13 10:58:00,73.4,72.2,29.78,SSE,152,0.0,0.0,96,9.58,,---,39.31,VWS V14.01,2013-08-13 14:58:00,
2013-08-13 11:03:00,73.7,72.5,29.78,South,173,0.0,0.0,96,9.37,,---,40.30,VWS V14.01,2013-08-13 15:03:00,
2013-08-13 11:08:00,74.0,72.5,29.79,SW,220,0.0,0.0,95,9.29,,---,41.42,VWS V14.01,2013-08-13 15:08:00,
2013-08-13 11:13:00,74.1,72.3,29.79,SSW,210,0.0,0.0,94,9.41,,---,42.62,VWS V14.01,2013-08-13 15:13:00,
2013-08-13 11:18:00,74.0,71.8,29.79,West,261,0.0,0.0,93,9.41,,---,43.82,VWS V14.01,2013-08-13 15:18:00,
2013-08-13 11:23:00,73.9,71.4,29.79,West,261,0.0,0.0,92,9.29,,---,44.90,VWS V14.01,2013-08-13 15:23:00,
2013-08-13 11:28:00,73.8,71.3,29.79,West,261,0.0,0.0,92,9.37,,---,46.10,VWS V14.01,2013-08-13 15:28:00,
2013-08-13 11:33:00,74.0,71.8,29.79,SSE,163,0.0,0.0,93,9.50,,---,47.30,VWS V14.01,2013-08-13 15:33:00,
2013-08-13 11:38:00,74.6,72.8,29.79,SSW,196,0.0,0.0,94,9.44,,---,48.50,VWS V14.01,2013-08-13 15:38:00,
2013-08-13 11:43:00,75.0,73.2,29.80,West,265,0.0,0.0,94,10.44,,---,49.58,VWS V14.01,2013-08-13 15:43:00,
2013-08-13 11:48:00,74.9,72.4,29.80,SSE,161,0.0,0.0,92,11.64,,---,50.78,VWS V14.01,2013-08-13 15:48:00,
2013-08-13 11:53:00,74.2,70.8,29.80,SSW,200,0.0,0.0,89,12.84,,---,51.98,VWS V14.01,2013-08-13 15:53:00,
2013-08-13 11:58:00,73.9,70.1,29.80,SSW,200,0.0,0.0,88,13.92,,---,53.18,VWS V14.01,2013-08-13 15:58:00,
2013-08-13 12:03:00,74.1,70.7,29.80,SSW,200,0.0,0.0,89,14.85,,---,54.26,VWS V14.01,2013-08-13 16:03:00,
2013-08-13 12:08:00,74.5,71.1,29.79,West,261,0.0,0.0,89,15.04,,---,55.46,VWS V14.01,2013-08-13 16:08:00,
2013-08-13 12:13:00,74.7,70.9,29.80,SSW,209,0.0,0.0,88,15.12,,---,56.66,VWS V14.01,2013-08-13 16:13:00,
2013-08-13 12:18:00,74.8,70.3,29.79,WNW,300,0.0,0.0,86,15.12,,---,57.86,VWS V14.01,2013-08-13 16:18:00,
2013-08-13 12:23:00,75.1,70.3,29.80,NE,34,0.0,0.0,85,15.00,,---,58.94,VWS V14.01,2013-08-13 16:23:00,
2013-08-13 12:28:00,75.7,70.5,29.79,NE,42,0.0,0.0,84,15.00,,---,60.14,VWS V14.01,2013-08-13 16:28:00,
2013-08-13 12:33:00,75.9,69.7,29.79,WSW,247,0.0,0.0,81,15.12,,---,61.34,VWS V14.01,2013-08-13 16:33:00,
2013-08-13 12:38:00,76.2,69.6,29.79,NW,311,0.0,0.0,80,15.12,,---,62.54,VWS V14.01,2013-08-13 16:38:00,
2013-08-13 12:43:00,76.6,69.6,29.79,NW,309,0.0,0.0,79,15.07,,---,63.69,VWS V14.01,2013-08-13 16:43:00,
2013-08-13 12:48:00,77.0,69.6,29.79,West,279,0.0,0.0,78,14.89,,---,64.71,VWS V14.01,2013-08-13 16:48:00,
2013-08-13 12:53:00,77.3,69.2,29.79,ESE,106,0.0,0.0,76,14.62,,---,65.52,VWS V14.01,2013-08-13 16:53:00,
2013-08-13 12:58:00,77.6,69.1,29.79,South,188,0.0,0.0,75,14.33,,---,66.43,VWS V14.01,2013-08-13 16:58:00,
2013-08-13 13:03:00,78.0,69.4,29.78,West,269,0.0,0.0,75,14.33,,---,67.63,VWS V14.01,2013-08-13 17:03:00,
2013-08-13 13:08:00,78.3,69.3,29.78,SSE,151,0.0,0.0,74,14.19,,---,68.69,VWS V14.01,2013-08-13 17:08:00,
2013-08-13 13:13:00,78.7,69.7,29.78,NW,315,0.0,0.0,74,14.31,,---,69.89,VWS V14.01,2013-08-13 17:13:00,
2013-08-13 13:18:00,78.8,69.4,29.78,West,275,0.0,0.0,73,14.24,,---,71.02,VWS V14.01,2013-08-13 17:18:00,
2013-08-13 13:23:00,79.2,70.2,29.78,NW,312,0.0,0.0,74,14.24,,---,72.22,VWS V14.01,2013-08-13 17:23:00,
2013-08-13 13:28:00,79.5,69.7,29.78,WNW,288,0.0,0.0,72,13.99,,---,73.17,VWS V14.01,2013-08-13 17:28:00,
2013-08-13 13:33:00,79.8,69.6,29.78,SW,236,0.0,0.0,71,13.89,,---,74.15,VWS V14.01,2013-08-13 17:33:00,
2013-08-13 13:38:00,80.3,70.5,29.78,West,261,0.0,0.0,72,13.57,,---,75.03,VWS V14.01,2013-08-13 17:38:00,
2013-08-13 13:43:00,80.4,69.7,29.79,WNW,296,0.0,0.0,70,13.53,,---,76.19,VWS V14.01,2013-08-13 17:43:00,
2013-08-13 13:48:00,80.6,70.3,29.79,NW,311,0.0,0.0,71,13.46,,---,77.27,VWS V14.01,2013-08-13 17:48:00,
2013-08-13 13:53:00,80.8,70.1,29.79,NNE,17,0.0,0.0,70,13.53,,---,78.47,VWS V14.01,2013-08-13 17:53:00,
2013-08-13 13:58:00,81.0,70.3,29.79,SE,137,0.0,0.0,70,13.97,,---,79.58,VWS V14.01,2013-08-13 17:58:00,
2013-08-13 14:03:00,81.2,70.1,29.79,NNW,327,0.0,0.0,69,14.15,,---,80.70,VWS V14.01,2013-08-13 18:03:00,
2013-08-13 14:08:00,81.3,68.4,29.79,SW,236,0.0,0.0,65,13.59,,---,81.34,VWS V14.01,2013-08-13 18:08:00,
2013-08-13 14:13:00,81.3,68.4,29.79,WNW,295,0.0,0.0,65,13.27,,---,82.20,VWS V14.01,2013-08-13 18:13:00,
2013-08-13 14:18:00,81.0,67.7,29.79,SW,228,0.0,0.0,64,13.27,,---,83.40,VWS V14.01,2013-08-13 18:18:00,
2013-08-13 14:23:00,80.8,68.4,29.79,West,269,0.0,0.0,66,13.34,,---,84.48,VWS V14.01,2013-08-13 18:23:00,
2013-08-13 14:28:00,80.7,68.3,29.79,West,261,0.0,0.0,66,13.34,,---,85.68,VWS V14.01,2013-08-13 18:28:00,
2013-08-13 14:33:00,80.8,69.3,29.80,WNW,282,0.0,0.0,68,13.47,,---,86.88,VWS V14.01,2013-08-13 18:33:00,
2013-08-13 14:38:00,80.7,68.7,29.80,WSW,256,0.0,0.0,67,13.83,,---,88.08,VWS V14.01,2013-08-13 18:38:00,
2013-08-13 14:43:00,80.4,68.0,29.80,NW,325,0.0,0.0,66,14.01,,---,89.16,VWS V14.01,2013-08-13 18:43:00,
2013-08-13 14:48:00,80.2,68.3,29.79,West,279,0.0,0.0,67,14.05,,---,90.36,VWS V14.01,2013-08-13 18:48:00,
2013-08-13 14:53:00,80.0,68.1,29.80,NW,308,0.0,0.0,67,14.05,,---,91.56,VWS V14.01,2013-08-13 18:53:00,
2013-08-13 14:58:00,79.7,68.6,29.80,SW,222,0.0,0.0,69,14.05,,---,92.76,VWS V14.01,2013-08-13 18:58:00,
2013-08-13 15:03:00,79.4,67.9,29.80,NW,319,0.0,0.0,68,14.16,,---,93.84,VWS V14.01,2013-08-13 19:03:00,
2013-08-13 15:08:00,79.0,67.1,29.80,WNW,294,0.0,0.0,67,14.29,,---,95.04,VWS V14.01,2013-08-13 19:08:00,
2013-08-13 15:13:00,78.7,67.3,29.80,SW,230,0.0,0.0,68,14.66,,---,96.24,VWS V14.01,2013-08-13 19:13:00,
2013-08-13 15:18:00,78.4,67.4,29.80,West,273,0.0,0.0,69,15.12,,---,97.44,VWS V14.01,2013-08-13 19:18:00,
2013-08-13 15:23:00,78.3,67.3,29.79,West,273,0.0,0.0,69,15.00,,---,98.52,VWS V14.01,2013-08-13 19:23:00,
2013-08-13 15:28:00,78.3,68.1,29.79,SSW,207,0.0,0.0,71,15.00,,---,98.88,VWS V14.01,2013-08-13 19:28:00,
2013-08-13 15:33:00,78.3,68.1,29.79,NW,307,0.0,0.0,71,15.00,,---,98.88,VWS V14.01,2013-08-13 19:33:00,
2013-08-13 15:38:00,78.4,67.0,29.79,WNW,298,0.0,0.0,68,15.12,,---,98.88,VWS V14.01,2013-08-13 19:38:00,
2013-08-13 15:43:00,78.2,65.9,29.79,South,173,0.0,0.0,66,15.00,,---,98.88,VWS V14.01,2013-08-13 19:43:00,
2013-08-13 15:48:00,78.2,66.8,29.79,SSW,196,0.0,0.0,68,15.00,,---,98.88,VWS V14.01,2013-08-13 19:48:00,
2013-08-13 15:53:00,78.3,67.3,29.78,SW,216,0.0,0.0,69,15.00,,---,98.88,VWS V14.01,2013-08-13 19:53:00,
2013-08-13 15:58:00,78.6,68.4,29.78,West,277,0.0,0.0,71,15.12,,---,98.88,VWS V14.01,2013-08-13 19:58:00,
2013-08-13 16:03:00,78.7,67.3,29.78,NW,313,0.0,0.0,68,15.00,,---,98.88,VWS V14.01,2013-08-13 20:03:00,
2013-08-13 16:08:00,78.9,66.6,29.78,NE,35,0.0,0.0,66,14.94,,---,98.88,VWS V14.01,2013-08-13 20:08:00,
2013-08-13 16:13:00,79.2,66.9,29.78,WSW,254,0.0,0.0,66,14.67,,---,98.88,VWS V14.01,2013-08-13 20:13:00,
2013-08-13 16:18:00,79.4,67.1,29.78,NW,307,0.0,0.0,66,13.70,,---,98.88,VWS V14.01,2013-08-13 20:18:00,
2013-08-13 16:23:00,79.4,66.6,29.79,NNW,336,0.0,0.0,65,12.69,,---,98.88,VWS V14.01,2013-08-13 20:23:00,
2013-08-13 16:28:00,79.6,66.4,29.79,WNW,301,0.0,0.0,64,11.75,,---,98.88,VWS V14.01,2013-08-13 20:28:00,
2013-08-13 16:33:00,79.7,66.5,29.79,NNW,342,0.0,0.0,64,10.94,,---,98.88,VWS V14.01,2013-08-13 20:33:00,
2013-08-13 16:38:00,79.7,66.5,29.79,SSW,204,0.0,0.0,64,9.74,,---,98.88,VWS V14.01,2013-08-13 20:38:00,
2013-08-13 16:43:00,79.8,66.6,29.80,WNW,294,0.0,0.0,64,8.66,,---,98.88,VWS V14.01,2013-08-13 20:43:00,
2013-08-13 16:48:00,79.6,65.9,29.79,NE,54,0.0,0.0,63,8.39,,---,98.88,VWS V14.01,2013-08-13 20:48:00,
2013-08-13 16:53:00,79.5,66.3,29.80,West,277,0.0,0.0,64,8.43,,---,98.88,VWS V14.01,2013-08-13 20:53:00,
2013-08-13 16:58:00,79.2,66.4,29.80,NNE,13,0.0,0.0,65,8.43,,---,98.88,VWS V14.01,2013-08-13 20:58:00,
2013-08-13 17:03:00,78.8,66.1,29.80,WNW,286,0.0,0.0,65,8.55,,---,98.88,VWS V14.01,2013-08-13 21:03:00,
2013-08-13 17:08:00,78.5,66.6,29.80,SE,146,0.0,0.0,67,8.43,,---,98.88,VWS V14.01,2013-08-13 21:08:00,
2013-08-13 17:13:00,78.1,65.4,29.81,SSW,209,0.0,1.0,65,8.73,,---,98.88,VWS V14.01,2013-08-13 21:13:00,
2013-08-13 17:18:00,77.7,65.0,29.81,SW,222,0.0,0.0,65,8.88,,---,98.88,VWS V14.01,2013-08-13 21:18:00,
2013-08-13 17:23:00,77.4,65.2,29.81,WNW,282,0.0,0.0,66,9.91,,---,98.88,VWS V14.01,2013-08-13 21:23:00,
2013-08-13 17:28:00,77.1,64.9,29.81,WSW,238,0.0,0.0,66,10.91,,---,98.88,VWS V14.01,2013-08-13 21:28:00,
2013-08-13 17:33:00,77.0,66.1,29.81,NW,323,0.0,0.0,69,11.80,,---,98.88,VWS V14.01,2013-08-13 21:33:00,
2013-08-13 17:38:00,76.9,66.0,29.81,WNW,285,0.0,0.0,69,12.73,,---,98.88,VWS V14.01,2013-08-13 21:38:00,
2013-08-13 17:43:00,76.7,64.9,29.81,WNW,292,0.0,0.0,67,13.93,,---,98.88,VWS V14.01,2013-08-13 21:43:00,
2013-08-13 17:48:00,76.2,64.0,29.81,West,265,0.0,0.0,66,15.12,,---,98.88,VWS V14.01,2013-08-13 21:48:00,
2013-08-13 17:53:00,75.8,63.6,29.81,West,277,0.0,1.0,66,15.00,,---,98.88,VWS V14.01,2013-08-13 21:53:00,
2013-08-13 17:58:00,75.4,64.1,29.81,West,281,0.0,1.0,68,15.00,,---,98.88,VWS V14.01,2013-08-13 21:58:00,
2013-08-13 18:03:00,75.2,63.9,29.81,NNW,343,0.0,0.0,68,14.80,,---,98.88,VWS V14.01,2013-08-13 22:03:00,
2013-08-13 18:08:00,75.0,63.7,29.81,NW,318,1.0,1.0,68,13.60,,---,98.88,VWS V14.01,2013-08-13 22:08:00,
2013-08-13 18:13:00,74.8,63.5,29.81,WNW,290,1.0,1.0,68,12.53,,---,98.88,VWS V14.01,2013-08-13 22:13:00,
2013-08-13 18:18:00,74.6,63.8,29.81,West,260,0.0,1.0,69,12.39,,---,98.88,VWS V14.01,2013-08-13 22:18:00,
2013-08-13 18:23:00,74.5,64.9,29.82,West,260,0.0,1.0,72,12.39,,---,98.88,VWS V14.01,2013-08-13 22:23:00,
2013-08-13 18:28:00,74.2,63.4,29.82,NNE,26,0.0,1.0,69,12.51,,---,98.88,VWS V14.01,2013-08-13 22:28:00,
2013-08-13 18:33:00,73.8,63.4,29.82,WNW,292,0.0,1.0,70,12.31,,---,98.88,VWS V14.01,2013-08-13 22:33:00,
2013-08-13 18:38:00,73.4,62.6,29.82,NNE,13,0.0,1.0,69,12.35,,---,98.88,VWS V14.01,2013-08-13 22:38:00,
2013-08-13 18:43:00,73.1,62.7,29.82,NW,306,1.0,1.0,70,12.47,,---,98.88,VWS V14.01,2013-08-13 22:43:00,
2013-08-13 18:48:00,72.7,62.4,29.83,NE,36,1.0,2.0,70,12.35,,---,98.88,VWS V14.01,2013-08-13 22:48:00,
2013-08-13 18:53:00,72.2,61.9,29.83,WNW,282,0.0,3.0,70,12.35,,---,98.88,VWS V14.01,2013-08-13 22:53:00,
2013-08-13 18:58:00,72.0,62.1,29.83,South,181,0.0,7.0,71,12.35,,---,98.88,VWS V14.01,2013-08-13 22:58:00,
2013-08-13 19:03:00,71.6,61.7,29.83,NW,317,2.0,10.0,71,12.32,,---,98.88,VWS V14.01,2013-08-13 23:03:00,
2013-08-13 19:08:00,71.2,61.3,29.84,West,265,4.0,9.0,71,11.99,,---,98.88,VWS V14.01,2013-08-13 23:08:00,
2013-08-13 19:13:00,70.9,61.4,29.84,SSW,209,0.0,4.0,72,12.04,,---,98.88,VWS V14.01,2013-08-13 23:13:00,
2013-08-13 19:18:00,70.6,61.5,29.84,WNW,298,0.0,5.0,73,11.82,,---,98.88,VWS V14.01,2013-08-13 23:18:00,
2013-08-13 19:23:00,70.2,61.2,29.85,NW,308,0.0,6.0,73,10.73,,---,98.88,VWS V14.01,2013-08-13 23:23:00,
2013-08-13 19:28:00,70.0,61.3,29.85,West,271,0.0,5.0,74,9.53,,---,98.88,VWS V14.01,2013-08-13 23:28:00,
2013-08-13 19:33:00,69.8,61.2,29.85,West,266,2.0,3.0,74,8.41,,---,98.88,VWS V14.01,2013-08-13 23:33:00,
2013-08-13 19:38:00,69.4,60.4,29.86,NW,323,0.0,7.0,73,7.33,,---,98.88,VWS V14.01,2013-08-13 23:38:00,
2013-08-13 19:43:00,69.1,60.1,29.86,SE,142,0.0,11.0,73,6.09,,---,98.88,VWS V14.01,2013-08-13 23:43:00,
2013-08-13 19:48:00,68.8,59.8,29.86,South,191,0.0,4.0,73,4.89,,---,98.88,VWS V14.01,2013-08-13 23:48:00,
2013-08-13 19:53:00,68.5,59.5,29.86,WNW,293,0.0,6.0,73,3.81,,---,98.88,VWS V14.01,2013-08-13 23:53:00,
2013-08-13 19:58:00,68.3,59.3,29.87,WNW,291,0.0,5.0,73,2.61,,---,98.88,VWS V14.01,2013-08-13 23:58:00,
2013-08-13 20:03:00,68.0,58.7,29.87,NNE,26,2.0,13.0,72,1.41,,---,98.88,VWS V14.01,2013-08-14 00:03:00,
2013-08-13 20:08:00,67.7,58.7,29.87,NNW,336,0.0,9.0,73,0.43,,---,98.88,VWS V14.01,2013-08-14 00:08:00,
2013-08-13 20:13:00,67.6,58.7,29.87,WNW,296,0.0,4.0,73,0.00,,---,98.88,VWS V14.01,2013-08-14 00:13:00,
2013-08-13 20:18:00,67.4,58.5,29.87,West,268,0.0,7.0,73,0.00,,---,98.88,VWS V14.01,2013-08-14 00:18:00,
2013-08-13 20:23:00,67.2,58.3,29.87,West,271,0.0,4.0,73,0.00,,---,98.88,VWS V14.01,2013-08-14 00:23:00,
2013-08-13 20:28:00,67.0,58.5,29.88,WNW,302,0.0,5.0,74,0.00,,---,98.88,VWS V14.01,2013-08-14 00:28:00,
2013-08-13 20:33:00,66.8,57.9,29.88,NW,319,0.0,7.0,73,0.00,,---,98.88,VWS V14.01,2013-08-14 00:33:00,
2013-08-13 20:38:00,66.5,57.6,29.88,WSW,246,0.0,4.0,73,0.00,,---,98.88,VWS V14.01,2013-08-14 00:38:00,
2013-08-13 20:43:00,66.2,57.3,29.88,WNW,282,1.0,5.0,73,0.00,,---,98.88,VWS V14.01,2013-08-14 00:43:00,
2013-08-13 20:48:00,66.0,57.1,29.89,West,274,2.0,10.0,73,0.00,,---,98.88,VWS V14.01,2013-08-14 00:48:00,
2013-08-13 20:53:00,65.7,56.4,29.89,West,270,1.0,7.0,72,0.00,,---,98.88,VWS V14.01,2013-08-14 00:53:00,
2013-08-13 20:58:00,65.5,56.2,29.89,WSW,245,0.0,10.0,72,0.00,,---,98.88,VWS V14.01,2013-08-14 00:58:00,
2013-08-13 21:03:00,65.3,56.0,29.89,WNW,302,0.0,2.0,72,0.00,,---,98.88,VWS V14.01,2013-08-14 01:03:00,
2013-08-13 21:08:00,65.0,55.8,29.90,West,277,0.0,5.0,72,0.00,,---,98.88,VWS V14.01,2013-08-14 01:08:00,
2013-08-13 21:13:00,64.7,55.5,29.90,SW,236,0.0,7.0,72,0.00,,---,98.88,VWS V14.01,2013-08-14 01:13:00,
2013-08-13 21:18:00,64.5,55.3,29.90,West,259,0.0,1.0,72,0.00,,---,98.88,VWS V14.01,2013-08-14 01:18:00,
2013-08-13 21:23:00,64.3,55.1,29.90,West,272,0.0,5.0,72,0.01,,---,98.88,VWS V14.01,2013-08-14 01:23:00,
2013-08-13 21:28:00,64.1,55.3,29.91,NW,308,1.0,4.0,73,0.01,,---,98.88,VWS V14.01,2013-08-14 01:28:00,
2013-08-13 21:33:00,63.9,55.1,29.91,West,263,0.0,6.0,73,0.01,,---,98.88,VWS V14.01,2013-08-14 01:33:00,
2013-08-13 21:38:00,63.7,54.9,29.91,SW,236,2.0,2.0,73,0.01,,---,98.88,VWS V14.01,2013-08-14 01:38:00,
2013-08-13 21:43:00,63.4,54.2,29.92,NNE,30,2.0,7.0,72,0.01,,---,98.88,VWS V14.01,2013-08-14 01:43:00,
2013-08-13 21:48:00,63.1,53.9,29.92,WSW,254,0.0,3.0,72,0.01,,---,98.88,VWS V14.01,2013-08-14 01:48:00,
2013-08-13 21:53:00,62.9,53.8,29.92,NNW,337,0.0,7.0,72,0.01,,---,98.88,VWS V14.01,2013-08-14 01:53:00,
2013-08-13 21:58:00,62.7,53.5,29.92,SSE,165,2.0,5.0,72,0.01,,---,98.88,VWS V14.01,2013-08-14 01:58:00,
2013-08-13 22:03:00,62.5,53.4,29.92,North,355,0.0,3.0,72,0.01,,---,98.88,VWS V14.01,2013-08-14 02:03:00,
2013-08-13 22:08:00,62.3,53.2,29.92,NW,316,1.0,3.0,72,0.01,,---,98.88,VWS V14.01,2013-08-14 02:08:00,
2013-08-13 22:13:00,62.1,53.0,29.92,WNW,297,0.0,3.0,72,0.01,,---,98.88,VWS V14.01,2013-08-14 02:13:00,
2013-08-13 22:18:00,62.0,53.6,29.92,WNW,301,0.0,2.0,74,0.01,,---,98.88,VWS V14.01,2013-08-14 02:18:00,
2013-08-13 22:23:00,61.9,53.5,29.93,WNW,301,0.0,1.0,74,0.01,,---,98.88,VWS V14.01,2013-08-14 02:23:00,
2013-08-13 22:28:00,61.7,53.3,29.93,WNW,301,0.0,0.0,74,0.00,,---,98.88,VWS V14.01,2013-08-14 02:28:00,
2013-08-13 22:33:00,61.5,53.5,29.93,WNW,301,0.0,1.0,75,0.00,,---,98.88,VWS V14.01,2013-08-14 02:33:00,
2013-08-13 22:38:00,61.2,53.2,29.94,WNW,301,0.0,0.0,75,0.00,,---,98.88,VWS V14.01,2013-08-14 02:38:00,
2013-08-13 22:43:00,61.0,53.0,29.94,West,266,2.0,3.0,75,0.00,,---,98.88,VWS V14.01,2013-08-14 02:43:00,
2013-08-13 22:48:00,60.7,53.1,29.94,West,266,0.0,2.0,76,0.00,,---,98.88,VWS V14.01,2013-08-14 02:48:00,
2013-08-13 22:53:00,60.5,52.9,29.94,West,266,0.0,1.0,76,0.00,,---,98.88,VWS V14.01,2013-08-14 02:53:00,
2013-08-13 22:58:00,60.3,52.7,29.94,West,266,1.0,2.0,76,0.00,,---,98.88,VWS V14.01,2013-08-14 02:58:00,
2013-08-13 23:03:00,60.2,53.0,29.95,West,266,0.0,2.0,77,0.00,,---,98.88,VWS V14.01,2013-08-14 03:03:00,
2013-08-13 23:08:00,60.0,52.8,29.95,NNW,338,0.0,1.0,77,0.00,,---,98.88,VWS V14.01,2013-08-14 03:08:00,
2013-08-13 23:13:00,59.8,52.9,29.95,NW,306,0.0,4.0,78,0.00,,---,98.88,VWS V14.01,2013-08-14 03:13:00,
2013-08-13 23:18:00,59.6,52.7,29.95,NE,37,0.0,1.0,78,0.00,,---,98.88,VWS V14.01,2013-08-14 03:18:00,
2013-08-13 23:23:00,59.5,52.6,29.95,NE,36,0.0,0.0,78,0.00,,---,98.88,VWS V14.01,2013-08-14 03:23:00,
2013-08-13 23:28:00,59.4,52.5,29.95,NE,36,0.0,0.0,78,0.00,,---,98.88,VWS V14.01,2013-08-14 03:28:00,
2013-08-13 23:33:00,59.2,52.7,29.95,WNW,293,0.0,4.0,79,0.00,,---,98.88,VWS V14.01,2013-08-14 03:33:00,
2013-08-13 23:38:00,59.1,52.6,29.95,WNW,293,0.0,0.0,79,0.00,,---,98.88,VWS V14.01,2013-08-14 03:38:00,
2013-08-13 23:43:00,59.0,52.8,29.95,WNW,293,0.0,0.0,80,0.00,,---,98.88,VWS V14.01,2013-08-14 03:43:00,
2013-08-13 23:48:00,58.8,52.7,29.95,WNW,303,0.0,2.0,80,0.00,,---,98.88,VWS V14.01,2013-08-14 03:48:00,
2013-08-13 23:53:00,58.6,52.5,29.95,WNW,303,0.0,0.0,80,0.00,,---,98.88,VWS V14.01,2013-08-14 03:53:00,
2013-08-13 23:58:00,58.4,52.6,29.95,WNW,303,0.0,0.0,81,0.00,,---,98.88,VWS V14.01,2013-08-14 03:58:00,